This is the latest recevied weather packets stored in our database for station/object K5FEP. If no packets are shown the sender has not sent any weather packets the latest 10 day(s).
| Time | Temp. | Humidity | Pressure | Rain* | Wind** | Luminosity | Snow |
|---|---|---|---|---|---|---|---|
| 1788352619 | 25° C | 82% | 1017.9 hPa | 0 mm | - | 207 W/m² | - |
| 1788352315 | 24.44° C | 83% | 1017.9 hPa | 0 mm | - | 116 W/m² | - |
| 1788352008 | 24.44° C | 83% | 1018.1 hPa | 0 mm | - | 77 W/m² | - |
| 1788351705 | 23.89° C | 85% | 1018.2 hPa | 0 mm | - | 97 W/m² | - |
| 1788351405 | 23.33° C | 86% | 1018.1 hPa | 0 mm | - | 94 W/m² | - |
| 1788351105 | 22.78° C | 88% | 1018.1 hPa | 0 mm | - | 78 W/m² | - |
| 1788350801 | 22.78° C | 90% | 1018.2 hPa | 0 mm | - | 73 W/m² | - |
| 1788350498 | 21.67° C | 92% | 1018.1 hPa | 0 mm | - | 99 W/m² | - |
| 1788350197 | 21.67° C | 93% | 1018.1 hPa | 0 mm | - | 67 W/m² | - |
| 1788349893 | 21.11° C | 94% | 1018.1 hPa | 0 mm | - | 53 W/m² | - |
| 1788349589 | 21.11° C | 94% | 1018.1 hPa | 0 mm | - | 41 W/m² | - |
| 1788349289 | 20.56° C | 94% | 1017.9 hPa | 0 mm | - | 38 W/m² | - |
| 1788348985 | 20.56° C | 93% | 1018 hPa | 0 mm | - | 34 W/m² | - |
| 1788348680 | 20.56° C | 94% | 1017.9 hPa | 0 mm | - | 31 W/m² | - |
| 1788348375 | 20.56° C | 94% | 1018 hPa | 0 mm | - | 28 W/m² | - |
| 1788348072 | 20.56° C | 94% | 1018 hPa | 0 mm | - | 25 W/m² | - |
| 1788347768 | 20.56° C | 94% | 1018 hPa | 0 mm | - | 21 W/m² | - |
| 1788347463 | 20.56° C | 94% | 1018 hPa | 0 mm | - | 17 W/m² | - |
| 1788347159 | 20.56° C | 94% | 1018.1 hPa | 0 mm | - | 13 W/m² | - |
| 1788346855 | 20.56° C | 94% | 1018 hPa | 0 mm | - | 10 W/m² | - |
| 1788346549 | 20.56° C | 94% | 1017.9 hPa | 0 mm | - | 7 W/m² | - |
| 1788346248 | 20.56° C | 94% | 1017.8 hPa | 0 mm | - | 4 W/m² | - |
| 1788345945 | 20.56° C | 93% | 1017.7 hPa | 0 mm | - | 2 W/m² | - |
| 1788345645 | 20.56° C | 93% | 1017.9 hPa | 0 mm | - | 1 W/m² | - |
| 1788345340 | 21.11° C | 93% | 1017.8 hPa | 0 mm | - | 0 W/m² | - |
* Rain latest hour (hover to see other rain measurements)
** Current wind speed in m/s (hover to see current wind gust speed)